Weather History for Carlsbad, NM

Change the Weather History Date:

Monday, February 27, 2012

  Actual Average Record
Temperature  
Mean Temperature 52 °F -  
Max Temperature 62 °F 65 °F 82 °F (1976)
Min Temperature 43 °F 36 °F 19 °F (2002)
Degree Days  
Heating Degree Days 12    
Growing Degree Days 2 (Base 50)    
Moisture  
Dew Point 33 °F    
Average Humidity 53    
Maximum Humidity 86    
Minimum Humidity 28    
Precipitation  
Precipitation 0.00 in - - ()
Sea Level Pressure  
Sea Level Pressure 30.01 in    
Wind  
Wind Speed 11 mph (North)    
Max Wind Speed 24 mph    
Max Gust Speed 32 mph    
Visibility 10 miles    
Events      
Averages and records for this station are not official NWS values.
T = Trace of Precipitation, MM = Missing Value Source: NWS Daily Summary

Daily Weather History Graph

Daily Weather History Graph

Search for Another Location

Airport:

Trip Planner

Search our weather history database for the weather conditions in past years. The results will help you decide how hot, cold, wet, or windy it might be!

Date:

Astronomy

Feb. 27, 2012 Rise Set
Actual Time 6:27 AM MST 5:52 PM MST
Civil Twilight 6:02 AM MST 6:17 PM MST
Nautical Twilight 5:34 AM MST 6:45 PM MST
Astronomical Twilight 5:05 AM MST 7:14 PM MST
Moon 9:20 AM MST (2/27) 11:24 PM MST (2/27)
Length of Visible Light 12h 14m
Length of Day
11h 25m
Waxing Crescent, 29% of the Moon is Illuminated
Feb 27
Waxing Crescent
Feb 29
First Quarter
Mar 8
Full
Mar 14
Last Quarter
Mar 22
New

Hourly Weather History & Observations

Time (MST) Temp. Windchill Dew Point Humidity Pressure Visibility Wind Dir Wind Speed Gust Speed Precip Events Conditions
12:53 AM 48.0 °F - 30.9 °F 52% 29.90 in 10.0 mi Calm Calm - N/A   Clear
1:53 AM 48.0 °F - 30.9 °F 52% 29.93 in 10.0 mi NW 10.4 mph - N/A   Clear
2:53 AM 50.0 °F - 21.9 °F 33% 29.95 in 10.0 mi NW 19.6 mph 27.6 mph N/A   Clear
3:53 AM 46.9 °F - 21.9 °F 37% 29.97 in 10.0 mi NW 23.0 mph 32.2 mph N/A   Clear
4:53 AM 46.0 °F 37.6 °F 17.1 °F 31% 30.02 in 10.0 mi NW 24.2 mph - N/A   Scattered Clouds
5:53 AM 44.1 °F 35.0 °F 14.0 °F 30% 30.08 in 10.0 mi NW 24.2 mph 32.2 mph N/A   Partly Cloudy
6:53 AM 43.0 °F 34.2 °F 12.0 °F 28% 30.13 in 10.0 mi NW 20.7 mph 29.9 mph N/A   Clear
7:53 AM 45.0 °F 36.4 °F 14.0 °F 29% 30.16 in 10.0 mi NNW 23.0 mph 29.9 mph N/A   Clear
8:53 AM 48.0 °F - 17.1 °F 29% 30.17 in 10.0 mi NNW 18.4 mph 25.3 mph N/A   Clear
9:53 AM 48.9 °F - 25.0 °F 39% 30.17 in 10.0 mi North 12.7 mph - N/A   Clear
10:53 AM 52.0 °F - 28.0 °F 40% 30.14 in 10.0 mi North 9.2 mph - N/A   Mostly Cloudy
11:53 AM 55.0 °F - 30.9 °F 40% 30.11 in 10.0 mi NNE 9.2 mph - N/A   Mostly Cloudy
12:53 PM 55.9 °F - 35.1 °F 45% 30.06 in 10.0 mi NE 5.8 mph - N/A   Partly Cloudy
1:53 PM 57.9 °F - 35.1 °F 42% 30.02 in 10.0 mi NW 3.5 mph - N/A   Clear
2:53 PM 60.1 °F - 37.0 °F 42% 29.98 in 10.0 mi East 4.6 mph - N/A   Clear
3:53 PM 62.1 °F - 41.0 °F 46% 29.96 in 10.0 mi ESE 11.5 mph - N/A   Mostly Cloudy
4:53 PM 60.1 °F - 43.0 °F 53% 29.96 in 10.0 mi ESE 15.0 mph - N/A   Partly Cloudy
5:53 PM 55.0 °F - 45.0 °F 69% 29.97 in 10.0 mi East 12.7 mph - N/A   Clear
6:53 PM 52.0 °F - 46.0 °F 80% 29.98 in 10.0 mi East 9.2 mph - N/A   Clear
7:53 PM 51.1 °F - 46.0 °F 83% 29.97 in 10.0 mi East 6.9 mph - N/A   Partly Cloudy
8:53 PM 48.9 °F - 44.1 °F 83% 29.96 in 10.0 mi Calm Calm - N/A   Overcast
9:53 PM 50.0 °F - 45.0 °F 83% 29.94 in 10.0 mi Calm Calm - N/A   Overcast
10:53 PM 50.0 °F - 46.0 °F 86% 29.91 in 10.0 mi West 4.6 mph - N/A   Overcast
11:27 PM 51.8 °F - 46.4 °F 82% 29.96 in 10.0 mi West 5.8 mph - N/A   Overcast
11:53 PM 53.1 °F - 48.0 °F 83% 29.88 in 10.0 mi Calm Calm - N/A   Overcast